Location: Marne
(34.0056°N, 117.9064°W)
Time: 14:45:50
(UTC+00:00)

STARLINK-1102 - Pass Details

Date: 18 January 2020
Orbit: 549 x 551 km, 53.0° (Epoch: 27 February)

Event Time Altitude Azimuth Distance (km) Brightness Sun altitude
Rises 01:25:39 0° 256° (WSW) 2,725 9.6 -4.3°
Reaches altitude 10° 01:28:14 10° 271° (W) 1,836 7.6 -4.8°
Maximum altitude 01:31:37 24° 325° (NW) 1,193 5.5 -5.5°
Drops below altitude 10° 01:35:02 10° 20° (NNE) 1,849 5.9 -6.2°
Enters shadow 01:37:00 - 32° (NNE) 2,516 6.5 -6.5°
